[[{"header":{"parameterUnit":"m.s-1","parameterCategory":1,"la1":30.2991,"la2":30.254,"lo1":-89.0895,"lo2":-89.0444,"dy":0.0017,"dx":0.0017,"nx":28,"ny":28,"refTime":"2026-01-09T09:00:00:Z","depth":0,"parameterNumber":2,"parameterNumberName":"U-component_of_WINDS"},"data":[0,0,0,0,0,0,0,0,0,0,0,0,0,0,0,0,0,0,0,0,0,0,0,0,0,0,0,0,0,0,0,0,0,0,0,0,0,0,0,0,0,0,0,0,0,0,0,0,0,0,0,0,0,0,0,0,0,0,1.4758,1.4758,0,1.4711,1.4711,1.471,1.4669,1.4668,1.4668,1.4668,1.462,1.4619,1.4618,0,0,0,0,0,0,0,0,0,0,0,0,0,1.4814,1.4814,1.4758,1.4758,1.4757,1.4711,1.4711,1.471,1.4669,1.4668,1.4668,1.4667,1.462,1.4619,1.4618,0,0,0,0,0,0,0,0,0,0,0,0,0,1.4781,1.4813,1.4758,1.4731,1.4728,1.4711,1.471,1.471,1.4669,1.4668,1.4668,1.4667,1.4621,1.4619,1.4618,1.4625,0,0,1.4614,1.4614,0,0,0,0,0,0,0,0,1.4783,1.4779,1.4736,1.4733,1.473,1.4695,1.4713,1.4681,1.4669,1.4692,1.4668,1.4667,1.4646,1.4642,1.4635,1.4622,1.462,1.4614,1.4613,1.4613,1.4613,0,0,0,0,0,0,0,1.4785,1.4781,1.474,1.4735,1.4731,1.4722,1.4716,1.4707,1.4673,1.469,1.4687,1.4681,1.4644,1.4636,1.4634,1.462,1.4614,1.4613,1.4612,1.4612,1.4611,1.4612,0,0,0,0,0,0,1.4792,1.4783,1.4741,1.4738,1.4755,1.4721,1.4715,1.4707,1.4673,1.4667,1.4682,1.468,1.4639,1.4635,1.4632,1.4638,1.4613,1.4612,1.4611,1.461,1.4611,1.4612,0,0,0,0,0,0,1.4793,1.4788,1.4743,1.476,1.4753,1.4721,1.4712,1.4706,1.4699,1.4667,1.4661,1.468,1.4638,1.4633,1.4627,1.4635,1.4611,1.461,1.461,1.4611,1.4612,1.4649,0,0,0,0,0,0,1.4795,1.4789,1.4791,1.476,1.4752,1.4739,1.4713,1.4706,1.4697,1.4693,1.4664,1.4659,1.4637,1.4629,1.4626,1.4633,1.4609,1.4609,1.461,1.4611,1.4647,1.4652,1.4656,0,0,0,0,0,1.4797,1.4803,1.4791,1.4786,1.4754,1.4739,1.4735,1.4709,1.4698,1.4699,1.4679,1.466,1.4635,1.4629,1.4625,1.4632,1.4608,1.461,1.4611,1.4645,1.4651,1.4655,0,0,0,0,0,0,1.4835,1.4798,1.4785,1.4781,1.4764,1.4732,1.4733,1.4716,1.4701,1.4699,1.4668,1.4662,1.4659,1.4645,1.4638,1.4637,1.4619,1.462,1.4646,1.4651,1.4655,1.4659,1.4608,0,0,0,0,0,1.4843,1.4834,1.4803,1.4802,1.4794,1.4766,1.4758,1.474,1.4721,1.4714,1.4693,1.4676,1.4664,1.4657,1.4644,1.4645,1.4639,1.4648,1.4653,1.4656,1.4657,1.4658,1.4662,1.4617,1.4617,1.4617,0,0,1.486,1.4839,1.4834,1.481,1.4794,1.4786,1.476,1.4752,1.4745,1.4712,1.4705,1.469,1.4668,1.4666,1.4663,1.4654,1.4668,1.4658,1.4661,1.466,1.466,1.4664,1.4668,1.4619,1.4618,1.4618,0,0,1.4885,1.4868,1.4867,1.4852,1.4829,1.481,1.481,1.4781,1.477,1.4762,1.4737,1.473,1.471,1.4696,1.4686,1.4709,1.469,1.4705,1.4727,1.4727,1.4731,1.4734,1.4742,1.4746,1.4707,1.4707,1.4707,0,1.4909,1.4895,1.4868,1.4862,1.4852,1.4822,1.4821,1.4808,1.4782,1.4776,1.4766,1.4741,1.4724,1.4719,1.4724,1.4717,1.4717,1.4708,1.4733,1.4735,1.4738,1.4745,1.4749,1.4709,1.4708,1.4708,1.4708,0,1.4925,1.4916,1.4918,1.4894,1.4884,1.4881,1.4854,1.4848,1.4831,1.4814,1.4807,1.4786,1.4769,1.4766,1.475,1.4759,1.4753,1.4738,1.4719,1.4744,1.4751,1.4754,1.4712,1.4711,1.471,1.471,0,0,1.4973,1.4935,1.4936,1.4925,1.4898,1.4891,1.4887,1.4871,1.4866,1.485,1.4846,1.483,1.4816,1.4805,1.4787,1.4788,1.4808,1.4773,1.4772,1.478,1.4817,1.4829,1.4833,1.4796,1.4796,1.4797,1.4819,0,1.4994,1.4984,1.4961,1.4958,1.495,1.4923,1.4919,1.4902,1.4886,1.4878,1.486,1.485,1.4832,1.4825,1.4825,1.4806,1.4815,1.4804,1.4792,1.4792,1.4799,1.4836,1.4848,1.4871,1.4822,1.4822,1.4822,0,1.5018,1.5003,1.5,1.4975,1.4971,1.4968,1.4952,1.4944,1.4925,1.4913,1.4902,1.4882,1.4877,1.486,1.4852,1.4845,1.4839,1.4829,1.4829,1.4827,1.4809,1.4836,1.4877,1.4881,1.4826,1.4826,1.4826,0,1.5053,1.5033,1.5029,1.5021,1.4991,1.499,1.4978,1.4958,1.495,1.4936,1.4931,1.4917,1.4909,1.4899,1.4876,1.4865,1.4871,1.4852,1.4862,1.4862,1.4864,1.4864,1.4905,1.486,1.486,1.486,1.486,0,1.508,1.5079,1.5045,1.5043,1.5041,1.5015,1.5015,1.5,1.4983,1.4977,1.4953,1.4948,1.4918,1.4911,1.4893,1.489,1.4886,1.4877,1.4872,1.4879,1.488,1.4875,1.4873,1.4861,1.4861,1.4861,1.486,0,1.5119,1.5096,1.509,1.5063,1.5056,1.5057,1.5033,1.503,1.5013,1.5007,1.5004,1.4977,1.4967,1.4943,1.4926,1.4914,1.4916,1.4907,1.4923,1.492,1.4931,1.493,1.497,1.4974,1.4926,1.4927,1.4927,0,1.5137,1.5136,1.5109,1.5104,1.5093,1.5085,1.5077,1.5051,1.5044,1.5023,1.5023,1.5011,1.5,1.4985,1.4964,1.4951,1.4942,1.4957,1.494,1.4948,1.4943,1.4943,1.4943,1.4961,1.4961,1.4962,1.4962,0,1.5172,1.5162,1.5151,1.5137,1.5129,1.5117,1.5103,1.51,1.5072,1.5065,1.5054,1.5046,1.5029,1.5018,1.5002,1.499,1.4972,1.4968,1.497,1.4977,1.4986,1.4981,1.4933,1.4967,1.4967,1.4966,1.4966,1.4966,1.5202,1.52,1.5181,1.5171,1.5158,1.5147,1.5143,1.5126,1.5117,1.5101,1.5087,1.5078,1.506,1.5038,1.5027,1.5019,1.501,1.5012,1.5013,1.5014,1.5017,1.4987,1.5016,1.5016,1.5016,1.5016,1.5016,0,1.5236,1.5223,1.5214,1.5196,1.5188,1.5172,1.5157,1.5152,1.5144,1.5129,1.5119,1.5108,1.5097,1.5076,1.5063,1.5061,1.5053,1.5059,1.5059,1.5056,1.5026,1.5026,1.5066,1.5066,1.5066,1.5066,1.5066,1.5066,1.5253,1.5249,1.5237,1.5227,1.5214,1.5205,1.5198,1.5188,1.5176,1.5164,1.5155,1.5142,1.5124,1.5111,1.51,1.5094,1.5091,1.51,1.5091,1.5063,1.5058,1.5054,1.5054,1.5099,1.5099,1.5122,1.5122,1.5122]},{"header":{"parameterUnit":"m.s-1","parameterCategory":1,"la1":30.2991,"la2":30.254,"lo1":-89.0895,"lo2":-89.0444,"dy":0.0017,"dx":0.0017,"nx":28,"ny":28,"refTime":"2026-01-09T09:00:00:Z","depth":0,"parameterNumber":3,"parameterNumberName":"V-component_of_WINDS"},"data":[0,0,0,0,0,0,0,0,0,0,0,0,0,0,0,0,0,0,0,0,0,0,0,0,0,0,0,0,0,0,0,0,0,0,0,0,0,0,0,0,0,0,0,0,0,0,0,0,0,0,0,0,0,0,0,0,0,0,3.2772,3.2773,0,3.2905,3.2906,3.2908,3.294,3.294,3.2939,3.2938,3.3082,3.3086,3.3091,0,0,0,0,0,0,0,0,0,0,0,0,0,3.2555,3.2558,3.2771,3.2773,3.2775,3.2904,3.2906,3.2908,3.2941,3.2939,3.2938,3.2937,3.308,3.3086,3.3091,0,0,0,0,0,0,0,0,0,0,0,0,0,3.2665,3.256,3.2771,3.2806,3.2811,3.2904,3.2906,3.2909,3.2941,3.2939,3.2938,3.2937,3.3079,3.3085,3.3092,3.3162,0,0,3.3114,3.3117,0,0,0,0,0,0,0,0,3.2658,3.2672,3.28,3.2804,3.2809,3.2904,3.2883,3.2994,3.2941,3.2892,3.2938,3.2936,3.3024,3.3036,3.3064,3.3169,3.3175,3.3114,3.3119,3.3122,3.3124,0,0,0,0,0,0,0,3.2651,3.2667,3.2824,3.2801,3.2807,3.2819,3.2833,3.2904,3.2964,3.2896,3.2899,3.2913,3.3027,3.3057,3.3068,3.3177,3.3114,3.312,3.3125,3.3127,3.3352,3.3353,0,0,0,0,0,0,3.2636,3.266,3.282,3.2828,3.2729,3.2824,3.2839,3.2875,3.2963,3.2975,3.2914,3.2914,3.3046,3.3059,3.3073,3.3164,3.3121,3.3128,3.3132,3.335,3.3352,3.3354,0,0,0,0,0,0,3.2631,3.265,3.2815,3.2745,3.2767,3.2829,3.2869,3.2879,3.2909,3.2977,3.2989,3.2934,3.3045,3.3063,3.314,3.3169,3.3131,3.3138,3.3348,3.3351,3.3353,3.3344,0,0,0,0,0,0,3.2624,3.2648,3.2672,3.2745,3.277,3.2877,3.287,3.2882,3.292,3.2921,3.2999,3.301,3.3046,3.313,3.3147,3.3178,3.3143,3.3346,3.3349,3.3352,3.3342,3.3346,3.3349,0,0,0,0,0,3.2617,3.2665,3.2673,3.2693,3.2802,3.2878,3.2893,3.2931,3.2922,3.2949,3.2994,3.3008,3.3163,3.3137,3.3157,3.3191,3.3344,3.3348,3.3352,3.334,3.3345,3.3349,0,0,0,0,0,0,3.2596,3.2675,3.2685,3.2758,3.2811,3.2884,3.2919,3.2934,3.2992,3.2992,3.3038,3.3056,3.3131,3.3168,3.3139,3.3266,3.3254,3.3262,3.3238,3.3243,3.3247,3.3237,3.3149,0,0,0,0,0,3.2599,3.2652,3.2719,3.2778,3.2803,3.2857,3.2891,3.2916,3.2973,3.2997,3.3047,3.3105,3.3167,3.3207,3.3268,3.3347,3.3367,3.3381,3.3384,3.3387,3.3394,3.3444,3.3452,3.3367,3.3367,3.3367,0,0,3.2608,3.2658,3.2688,3.2775,3.2819,3.2875,3.2875,3.2934,3.2978,3.3006,3.3083,3.3122,3.319,3.3269,3.3307,3.3303,3.3422,3.3392,3.3393,3.34,3.3449,3.3457,3.3464,3.337,3.3369,3.3369,0,0,3.2653,3.2694,3.2749,3.2793,3.2859,3.2894,3.2907,3.2978,3.3005,3.3082,3.3105,3.316,3.3264,3.3313,3.3352,3.3418,3.3435,3.3437,3.3457,3.3505,3.3511,3.3518,3.3545,3.3554,3.3443,3.3443,3.3443,0,3.2656,3.274,3.2776,3.2835,3.2874,3.29,3.2958,3.3,3.3083,3.3112,3.3105,3.324,3.3287,3.3381,3.3397,3.3426,3.3446,3.3429,3.3507,3.3513,3.352,3.3547,3.3557,3.3444,3.3444,3.3444,3.3444,0,3.2742,3.28,3.2837,3.2915,3.2958,3.3016,3.3065,3.3105,3.3126,3.3164,3.3244,3.3302,3.3377,3.34,3.3422,3.3499,3.3495,3.3497,3.3486,3.3527,3.3554,3.3564,3.3444,3.3444,3.3444,3.3444,0,0,3.2778,3.2876,3.2889,3.2927,3.3002,3.305,3.3111,3.3182,3.3217,3.3275,3.333,3.3419,3.3423,3.3467,3.3495,3.3536,3.359,3.3534,3.3537,3.3545,3.3683,3.3682,3.3693,3.3601,3.3603,3.3604,3.3678,0,3.2834,3.2941,3.2977,3.3068,3.3124,3.3151,3.3206,3.326,3.3297,3.3353,3.3396,3.346,3.3457,3.3485,3.3526,3.3574,3.3619,3.3569,3.3657,3.3659,3.3641,3.3706,3.3706,3.3772,3.3688,3.369,3.3691,0,3.2914,3.2972,3.3067,3.3139,3.3164,3.3211,3.3282,3.3333,3.3398,3.3422,3.3472,3.3497,3.3567,3.3551,3.365,3.3615,3.3654,3.3683,3.3687,3.3698,3.3679,3.3723,3.3794,3.3805,3.3707,3.3706,3.3705,0,3.2935,3.3036,3.3107,3.3138,3.3222,3.3256,3.3293,3.3356,3.3397,3.346,3.3488,3.3558,3.3597,3.3653,3.3699,3.3682,3.3795,3.3782,3.3822,3.3821,3.3846,3.3844,3.3927,3.3865,3.3865,3.3865,3.3865,0,3.2995,3.3054,3.3117,3.3161,3.3229,3.3272,3.3339,3.3378,3.3434,3.349,3.3518,3.357,3.3625,3.3686,3.3722,3.3801,3.3818,3.3843,3.3853,3.3842,3.3839,3.387,3.3867,3.3868,3.3867,3.3867,3.3866,0,3.303,3.3074,3.3154,3.3228,3.3248,3.3295,3.336,3.3407,3.3445,3.3515,3.3534,3.3596,3.367,3.372,3.3814,3.3839,3.3925,3.3933,3.3903,3.3908,3.3946,3.3943,3.4054,3.4072,3.3995,3.3996,3.3996,0,3.3067,3.3112,3.3191,3.3229,3.3266,3.3326,3.3369,3.3414,3.3458,3.3536,3.3574,3.3649,3.3711,3.3827,3.3883,3.3957,3.3968,3.4002,3.398,3.3969,3.3973,3.3971,3.3978,3.4006,3.4007,3.4007,3.4008,0,3.3129,3.3149,3.3208,3.3276,3.3325,3.3381,3.3438,3.3468,3.3524,3.3573,3.3646,3.3695,3.3791,3.3867,3.3946,3.3989,3.401,3.4014,3.4028,3.4019,3.4001,3.4015,3.3916,3.4012,3.4011,3.4011,3.4011,3.4011,3.3168,3.3211,3.3274,3.334,3.3387,3.344,3.3488,3.3532,3.3594,3.3674,3.3698,3.3776,3.3844,3.3952,3.3996,3.4061,3.4059,3.4077,3.4083,3.4088,3.4089,3.3988,3.4075,3.4075,3.4075,3.4075,3.4075,0,3.3235,3.3277,3.3336,3.3414,3.3468,3.3479,3.3543,3.3588,3.3655,3.3715,3.3776,3.3864,3.3938,3.4,3.4078,3.4118,3.413,3.4137,3.4136,3.4147,3.4085,3.4067,3.4127,3.4127,3.4127,3.4127,3.4127,3.4127,3.3275,3.335,3.3378,3.3479,3.3521,3.3596,3.3632,3.3683,3.3731,3.3827,3.3888,3.3927,3.399,3.4073,3.4143,3.416,3.4189,3.4195,3.4215,3.4156,3.4151,3.4145,3.4129,3.42,3.42,3.4271,3.4272,3.4272]}]]